Weather History for KLCG - March, 2013

Change the Weather History Date:

Friday, March 8, 2013

  Actual Average (KOFK) Record (KOFK)
Temperature  
Mean Temperature 38 °F 34 °F  
Max Temperature 49 °F 45 °F 73 °F (1977)
Min Temperature 27 °F 24 °F -8 °F (1995)
Degree Days  
Heating Degree Days 27 31  
Month to date heating degree days 258  
Since 1 July heating degree days 5351  
Cooling Degree Days 0 0  
Month to date cooling degree days 0  
Year to date cooling degree days 0  
Moisture  
Dew Point 32 °F    
Average Humidity 79    
Maximum Humidity 93    
Minimum Humidity 61    
Precipitation  
Precipitation 0.05 in 0.05 in 1.03 in (1893)
Month to date precipitation 0.32  
Year to date precipitation 1.67  
Snow  
Snow 0.00 in 0.10 in - ()
Month to date snowfall 1.4  
Since 1 July snowfall 24.2  
Snow Depth -    
Sea Level Pressure  
Sea Level Pressure 30.05 in    
Wind  
Wind Speed 7 mph (SE)    
Max Wind Speed 22 mph    
Max Gust Speed 25 mph    
Visibility 9 miles    
Events Rain , Thunderstorm    
T = Trace of Precipitation, MM = Missing Value Source: NWS Daily Summary

Daily Weather History Graph

Daily Weather History Graph

Search for Another Location

Airport or City:

Trip Planner

Search our weather history database for the weather conditions in past years. The results will help you decide how hot, cold, wet, or windy it might be!

Date:

Astronomy

Mar. 08, 2013 Rise Set
Actual Time 6:51 AM CST 6:26 PM CST
Civil Twilight 6:23 AM CST 6:54 PM CST
Nautical Twilight 5:50 AM CST 7:27 PM CST
Astronomical Twilight 5:18 AM CST 7:59 PM CST
Moon 4:39 AM CST (3/8) 3:20 PM CST (3/8)
Length of Visible Light 12h 31m
Length of Day
11h 35m
Waning Crescent, 11% of the Moon is Illuminated
Mar 8
Waning Crescent
Mar 11
New
Mar 19
First Quarter
Mar 27
Full
Apr 2
Last Quarter

Hourly Weather History & Observations

Time (CST) Temp. Windchill Dew Point Humidity Pressure Visibility Wind Dir Wind Speed Gust Speed Precip Events Conditions
12:15 AM 32.4 °F 26.0 °F 28.6 °F 86% 30.16 in 10.0 mi SSE 6.9 mph - N/A   Clear
12:35 AM 32.0 °F - 28.4 °F 87% 30.16 in 10.0 mi Calm Calm - N/A   Clear
12:55 AM 32.0 °F 28.7 °F 28.4 °F 87% 30.16 in 10.0 mi SSE 3.5 mph - N/A   Clear
1:15 AM 31.6 °F 27.0 °F 28.4 °F 88% 30.17 in 10.0 mi South 4.6 mph - N/A   Clear
1:35 AM 31.8 °F - 28.2 °F 87% 30.17 in 10.0 mi Calm Calm - N/A   Clear
1:55 AM 31.3 °F 26.6 °F 27.9 °F 87% 30.17 in 10.0 mi SE 4.6 mph - N/A   Clear
2:15 AM 30.9 °F 26.2 °F 27.5 °F 87% 30.17 in 7.0 mi SE 4.6 mph - N/A   Clear
2:35 AM 30.2 °F 25.4 °F 27.5 °F 90% 30.17 in 7.0 mi SE 4.6 mph - N/A   Clear
2:55 AM 30.2 °F - 27.5 °F 90% 30.16 in 7.0 mi Calm Calm - N/A   Clear
3:15 AM 29.3 °F 25.6 °F 27.0 °F 91% 30.15 in 7.0 mi ESE 3.5 mph - N/A   Clear
3:35 AM 29.1 °F - 27.1 °F 92% 30.15 in 7.0 mi Calm Calm - N/A   Clear
3:55 AM 29.1 °F 25.4 °F 27.1 °F 92% 30.15 in 7.0 mi ESE 3.5 mph - N/A   Clear
4:15 AM 29.1 °F 25.4 °F 26.6 °F 90% 30.15 in 7.0 mi ESE 3.5 mph - N/A   Clear
4:35 AM 28.8 °F 23.7 °F 26.6 °F 92% 30.15 in 7.0 mi ESE 4.6 mph - N/A   Clear
4:55 AM 28.9 °F - 26.4 °F 90% 30.15 in 7.0 mi Calm Calm - N/A   Clear
5:15 AM 28.4 °F 24.6 °F 26.4 °F 92% 30.15 in 7.0 mi ESE 3.5 mph - N/A   Clear
5:35 AM 28.4 °F 24.6 °F 26.1 °F 91% 30.15 in 7.0 mi ESE 3.5 mph - N/A   Clear
6:15 AM 27.3 °F 23.4 °F 25.5 °F 93% 30.14 in 7.0 mi East 3.5 mph - N/A   Clear
6:35 AM 27.5 °F 22.2 °F 25.7 °F 93% 30.14 in 7.0 mi ESE 4.6 mph - N/A   Clear
6:55 AM 27.9 °F 22.6 °F 25.5 °F 91% 30.14 in 7.0 mi East 4.6 mph - N/A   Clear
7:15 AM 28.0 °F - 25.5 °F 90% 30.14 in 7.0 mi Calm Calm - N/A   Clear
7:35 AM 28.6 °F 24.8 °F 26.1 °F 90% 30.14 in 7.0 mi East 3.5 mph - N/A   Clear
7:55 AM 30.0 °F 25.2 °F 26.6 °F 87% 30.14 in 7.0 mi East 4.6 mph - N/A   Clear
8:15 AM 31.1 °F 24.5 °F 27.1 °F 85% 30.15 in 10.0 mi ESE 6.9 mph - N/A   Clear
8:35 AM 31.8 °F 27.3 °F 27.5 °F 84% 30.15 in 7.0 mi ESE 4.6 mph - N/A   Clear
8:55 AM 32.4 °F 25.3 °F 28.0 °F 84% 30.15 in 10.0 mi SE 8.1 mph - N/A   Clear
9:15 AM 34.2 °F 29.0 °F 29.5 °F 83% 30.14 in 10.0 mi ESE 5.8 mph - N/A   Clear
9:35 AM 35.6 °F 29.2 °F 30.0 °F 80% 30.13 in 10.0 mi ESE 8.1 mph - N/A   Clear
9:55 AM 36.7 °F 29.9 °F 29.7 °F 76% 30.13 in 10.0 mi SE 9.2 mph - N/A   Clear
10:15 AM 37.2 °F 30.0 °F 30.9 °F 78% 30.13 in 10.0 mi SSE 10.4 mph - N/A   Clear
10:35 AM 38.3 °F 32.5 °F 31.3 °F 76% 30.10 in 10.0 mi ESE 8.1 mph - N/A   Clear
10:55 AM 39.4 °F 32.3 °F 32.0 °F 75% 30.08 in 10.0 mi ESE 11.5 mph - N/A   Clear
11:15 AM 41.5 °F 39.6 °F 32.4 °F 70% 30.12 in 10.0 mi SE 3.5 mph - N/A   Clear
11:35 AM 43.0 °F 37.7 °F 32.5 °F 67% 30.12 in 10.0 mi SSE 9.2 mph - N/A   Clear
11:55 AM 43.7 °F 39.1 °F 32.7 °F 65% 30.12 in 10.0 mi SSE 8.1 mph - N/A   Clear
12:15 PM 43.9 °F 39.9 °F 33.4 °F 67% 30.09 in 10.0 mi ESE 6.9 mph - N/A   Clear
12:35 PM 44.1 °F 39.0 °F 33.3 °F 66% 30.09 in 10.0 mi SE 9.2 mph - N/A   Clear
12:55 PM 44.1 °F 39.0 °F 32.9 °F 65% 30.07 in 10.0 mi ESE 9.2 mph - N/A   Scattered Clouds
1:15 PM 45.0 °F 39.7 °F 33.6 °F 64% 30.06 in 10.0 mi SE 10.4 mph - N/A   Scattered Clouds
1:35 PM 43.7 °F 37.3 °F 33.3 °F 67% 30.04 in 10.0 mi SE 12.7 mph - N/A   Mostly Cloudy
1:55 PM 43.9 °F 36.8 °F 34.0 °F 68% 30.01 in 10.0 mi ESE 15.0 mph - N/A   Mostly Cloudy
2:15 PM 46.9 °F - 34.9 °F 63% 30.01 in 10.0 mi SE 17.3 mph - N/A   Mostly Cloudy
2:35 PM 47.5 °F - 34.7 °F 61% 30.01 in 10.0 mi SSE 13.8 mph - N/A   Mostly Cloudy
2:55 PM 47.3 °F - 34.9 °F 62% 30.00 in 10.0 mi SE 10.4 mph - N/A   Mostly Cloudy
3:15 PM 47.8 °F - 35.8 °F 63% 29.99 in 10.0 mi ESE 8.1 mph - N/A   Scattered Clouds
3:35 PM 47.7 °F - 35.1 °F 62% 29.98 in 10.0 mi SE 11.5 mph - N/A   Scattered Clouds
3:55 PM 47.8 °F - 35.4 °F 62% 29.98 in 10.0 mi SE 10.4 mph - N/A   Scattered Clouds
4:15 PM 47.7 °F - 36.5 °F 65% 29.98 in 10.0 mi SSE 10.4 mph - N/A   Scattered Clouds
4:35 PM 49.1 °F - 36.9 °F 63% 29.96 in 10.0 mi SE 11.5 mph - N/A   Clear
4:55 PM 49.1 °F - 37.4 °F 64% 29.94 in 10.0 mi SE 13.8 mph - N/A   Clear
5:15 PM 48.7 °F - 37.4 °F 65% 29.93 in 10.0 mi SE 11.5 mph 19.6 mph N/A   Clear
5:35 PM 48.0 °F - 37.4 °F 67% 29.93 in 10.0 mi ESE 9.2 mph - N/A   Scattered Clouds
5:55 PM 47.5 °F - 37.0 °F 67% 29.93 in 10.0 mi SE 9.2 mph - N/A   Overcast
6:15 PM 46.9 °F - 37.4 °F 69% 29.93 in 10.0 mi SE 10.4 mph - N/A   Overcast
6:35 PM 46.8 °F - 37.4 °F 70% 29.93 in 10.0 mi SE 11.5 mph - N/A   Overcast
6:55 PM 46.4 °F 41.1 °F 37.4 °F 71% 29.93 in 10.0 mi SE 11.5 mph - N/A   Overcast
7:15 PM 46.4 °F 39.5 °F 37.6 °F 71% 29.92 in 10.0 mi SE 17.3 mph - N/A   Overcast
7:35 PM 45.7 °F 38.6 °F 37.8 °F 74% 29.92 in 10.0 mi SE 17.3 mph - N/A   Overcast
7:55 PM 45.1 °F 38.4 °F 37.8 °F 75% 29.92 in 10.0 mi SE 15.0 mph 21.9 mph N/A   Overcast
8:15 PM 44.8 °F 36.6 °F 37.8 °F 76% 29.91 in 10.0 mi SE 20.7 mph 25.3 mph N/A Rain Light Rain
8:35 PM 43.7 °F 35.0 °F 38.8 °F 83% 29.92 in 7.0 mi SSE 21.9 mph - N/A Rain Light Rain
8:55 PM 42.8 °F 34.3 °F 38.8 °F 86% 29.92 in 7.0 mi SSE 19.6 mph 25.3 mph N/A Rain Rain
9:15 PM 42.8 °F 34.3 °F 38.5 °F 85% 29.91 in 7.0 mi SSE 19.6 mph 25.3 mph N/A Rain Rain
9:35 PM 42.3 °F 34.1 °F 38.1 °F 85% 29.92 in 10.0 mi SSE 17.3 mph - N/A   Overcast
9:55 PM 41.9 °F 35.4 °F 37.9 °F 86% 29.92 in 7.0 mi SSE 11.5 mph - N/A Rain Rain
10:15 PM 41.2 °F 34.5 °F 38.3 °F 89% 29.92 in 4.0 mi SSE 11.5 mph - 0.03 in Rain Rain
10:35 PM 41.0 °F 33.9 °F 38.5 °F 91% 29.90 in 7.0 mi SSE 12.7 mph - 0.05 in Rain Light Rain
10:55 PM 41.9 °F 34.3 °F 38.5 °F 88% 29.90 in 7.0 mi SSE 15.0 mph - 0.05 in Rain Light Rain
11:15 PM 42.1 °F 33.9 °F 38.5 °F 87% 29.89 in 10.0 mi SSE 17.3 mph 21.9 mph N/A Thunderstorm Overcast
11:35 PM 41.9 °F 34.0 °F 39.2 °F 90% 29.88 in 7.0 mi SSE 16.1 mph 19.6 mph N/A   Overcast
11:55 PM 41.4 °F 33.0 °F 39.2 °F 92% 29.87 in 7.0 mi SSE 17.3 mph - N/A   Overcast